Location: Killam
(52.7910°N, 111.8608°W)
Time: 22:23:33
(UTC+00:00)

Vanguard 3 - Pass Details

Date: 23 February 2026
Orbit: 507 x 3205 km, 33.4° (Epoch: 11 March)

Event Time Altitude Azimuth Distance (km) Brightness Sun altitude
Rises 01:10:11 0° 250° (WSW) 5,210 13.9 -3.3°
Reaches altitude 10° 01:15:54 10° 232° (SW) 3,580 11.6 -4.1°
Maximum altitude 01:20:18 15° 201° (SSW) 2,713 10.3 -4.8°
Drops below altitude 10° 01:23:46 10° 168° (SSE) 2,674 9.8 -5.3°
Sets 01:27:03 0° 144° (SE) 3,254 10.0 -5.8°
